AAL152 KMAF-KOMA

Flight info

Callsign AAL152
Flight time 1h 38m
Altitude 25000
Route BGS CDS HUT HTHWY TIMMO1
Aircraft B77W/H-SDE1E2E3FGHIJ2J3J4J5M1RWXY/LB1D1

Departure

Time 2026-04-25 21:55
Airport Midland International Air and Space Port (KMAF)

Arrival

Time 2026-04-25 23:33
Airport Eppley Airfield (KOMA)
Time Latitude Longitude Altitude Speed Heading
2026-04-25 21:21 31.93777 -102.20711 2889 ft 0 kts 269°
2026-04-25 21:40 31.93777 -102.20707 2888 ft 2 kts 269°
2026-04-25 21:40 31.93777 -102.20689 2888 ft 2 kts 275°
2026-04-25 21:40 31.93775 -102.20672 2888 ft 2 kts 289°
2026-04-25 21:40 31.93769 -102.20656 2888 ft 2 kts 299°
2026-04-25 21:41 31.93761 -102.20641 2888 ft 2 kts 310°
2026-04-25 21:41 31.93751 -102.20628 2888 ft 2 kts 321°
2026-04-25 21:41 31.93739 -102.20618 2888 ft 2 kts 331°
2026-04-25 21:41 31.93725 -102.20610 2888 ft 2 kts 342°
2026-04-25 21:42 31.93710 -102.20606 2888 ft 2 kts 353°
2026-04-25 21:42 31.93704 -102.20605 2888 ft 0 kts 356°
2026-04-25 21:42 31.93705 -102.20605 2888 ft 0 kts 356°
2026-04-25 21:48 31.93718 -102.20605 2888 ft 5 kts
2026-04-25 21:48 31.93769 -102.20602 2888 ft 9 kts
2026-04-25 21:48 31.93836 -102.20599 2888 ft 10 kts
2026-04-25 21:49 31.93919 -102.20592 2888 ft 13 kts
2026-04-25 21:49 31.94017 -102.20581 2888 ft 14 kts
2026-04-25 21:49 31.94122 -102.20575 2888 ft 15 kts 357°
2026-04-25 21:49 31.94235 -102.20584 2888 ft 16 kts 354°
2026-04-25 21:50 31.94351 -102.20601 2888 ft 17 kts 353°
2026-04-25 21:50 31.94472 -102.20617 2888 ft 18 kts 355°
2026-04-25 21:50 31.94601 -102.20628 2888 ft 18 kts 355°
2026-04-25 21:50 31.94688 -102.20637 2888 ft 19 kts 354°
2026-04-25 21:51 31.94869 -102.20657 2888 ft 20 kts 355°
2026-04-25 21:51 31.95010 -102.20672 2888 ft 20 kts 354°
2026-04-25 21:51 31.95157 -102.20689 2888 ft 21 kts 354°
2026-04-25 21:51 31.95302 -102.20699 2888 ft 19 kts
2026-04-25 21:52 31.95424 -102.20696 2888 ft 17 kts
2026-04-25 21:52 31.95547 -102.20706 2888 ft 18 kts 353°
2026-04-25 21:52 31.95674 -102.20722 2888 ft 18 kts 355°
2026-04-25 21:52 31.95808 -102.20736 2888 ft 19 kts 355°
2026-04-25 21:53 31.95917 -102.20682 2888 ft 17 kts 70°
2026-04-25 21:53 31.95925 -102.20569 2888 ft 12 kts 121°
2026-04-25 21:53 31.95868 -102.20545 2888 ft 0 kts 172°
2026-04-25 21:54 31.95827 -102.20539 2888 ft 19 kts 174°
2026-04-25 21:54 31.95518 -102.20508 2888 ft 71 kts 175°
2026-04-25 21:54 31.94855 -102.20439 2888 ft 119 kts 177°
2026-04-25 21:54 31.93881 -102.20340 2889 ft 161 kts 176°
2026-04-25 21:55 31.92724 -102.20204 3311 ft 165 kts 174°
2026-04-25 21:55 31.91551 -102.19775 3764 ft 190 kts 149°
2026-04-25 21:55 31.90708 -102.18636 4623 ft 193 kts 119°
2026-04-25 21:55 31.90380 -102.17110 5396 ft 201 kts 98°
2026-04-25 21:56 31.90498 -102.15364 5871 ft 227 kts 75°
2026-04-25 21:56 31.90950 -102.14213 6138 ft 248 kts 57°
2026-04-25 21:56 31.92672 -102.12243 6961 ft 270 kts 32°
2026-04-25 21:56 31.94331 -102.11192 7744 ft 280 kts 26°
2026-04-25 21:57 31.96144 -102.10101 8263 ft 302 kts 28°
2026-04-25 21:57 31.97929 -102.08771 8981 ft 313 kts 37°
2026-04-25 21:57 31.99463 -102.06959 9882 ft 316 kts 53°
2026-04-25 21:57 32.00764 -102.04913 10447 ft 321 kts 51°
2026-04-25 21:58 32.02212 -102.02794 10452 ft 344 kts 52°
2026-04-25 21:58 32.03741 -102.00497 10498 ft 365 kts 51°
2026-04-25 21:58 32.05358 -101.98090 10535 ft 386 kts 51°
2026-04-25 21:58 32.07050 -101.95567 10699 ft 401 kts 51°
2026-04-25 21:59 32.08800 -101.92962 11273 ft 405 kts 51°
2026-04-25 21:59 32.10530 -101.90382 11910 ft 406 kts 51°
2026-04-25 21:59 32.12300 -101.87742 12477 ft 409 kts 51°
2026-04-25 22:00 32.15867 -101.82418 13435 ft 418 kts 51°
2026-04-25 22:00 32.17663 -101.79734 13913 ft 422 kts 51°
2026-04-25 22:00 32.19493 -101.76997 14393 ft 426 kts 51°
2026-04-25 22:00 32.21325 -101.74255 14865 ft 430 kts 51°
2026-04-25 22:01 32.23196 -101.71452 15342 ft 434 kts 51°
2026-04-25 22:01 32.25048 -101.68677 15807 ft 438 kts 50°
2026-04-25 22:01 32.26944 -101.65833 16278 ft 442 kts 50°
2026-04-25 22:01 32.28222 -101.63916 16591 ft 444 kts 50°
2026-04-25 22:02 32.30789 -101.60059 17214 ft 449 kts 50°
2026-04-25 22:02 32.32711 -101.57170 17672 ft 453 kts 50°
2026-04-25 22:02 32.34675 -101.54215 18132 ft 457 kts 50°
2026-04-25 22:02 32.36683 -101.51294 18565 ft 459 kts 46°
2026-04-25 22:03 32.38956 -101.48714 18960 ft 460 kts 36°
2026-04-25 22:03 32.41595 -101.46582 19413 ft 459 kts 25°
2026-04-25 22:03 32.44434 -101.44898 19853 ft 460 kts 21°
2026-04-25 22:03 32.47327 -101.43204 20284 ft 463 kts 22°
2026-04-25 22:04 32.50212 -101.41509 20730 ft 466 kts 22°
2026-04-25 22:04 32.53099 -101.39811 21180 ft 469 kts 22°
2026-04-25 22:04 32.56044 -101.38075 21630 ft 472 kts 21°
2026-04-25 22:04 32.58973 -101.36348 22071 ft 475 kts 21°
2026-04-25 22:05 32.61939 -101.34597 22499 ft 478 kts 22°
2026-04-25 22:05 32.64935 -101.32827 22901 ft 481 kts 21°
2026-04-25 22:05 32.67938 -101.31052 23310 ft 484 kts 21°
2026-04-25 22:05 32.70924 -101.29285 23718 ft 487 kts 21°
2026-04-25 22:06 32.73975 -101.27478 24123 ft 489 kts 21°
2026-04-25 22:06 32.77014 -101.25678 24520 ft 492 kts 21°
2026-04-25 22:06 32.80052 -101.23874 24771 ft 491 kts 21°
2026-04-25 22:06 32.83124 -101.22054 24765 ft 493 kts 21°
2026-04-25 22:07 32.86190 -101.20236 24778 ft 501 kts 21°
2026-04-25 22:07 32.88262 -101.19006 24778 ft 504 kts 21°
2026-04-25 22:07 32.92442 -101.16518 24769 ft 504 kts 21°
2026-04-25 22:07 32.95578 -101.14648 24769 ft 503 kts 21°
2026-04-25 22:08 32.98685 -101.12796 24770 ft 502 kts 21°
2026-04-25 22:08 33.01790 -101.10941 24770 ft 501 kts 21°
2026-04-25 22:08 33.04905 -101.09081 24770 ft 499 kts 20°
2026-04-25 22:08 33.08001 -101.07230 24770 ft 498 kts 20°
2026-04-25 22:09 33.11077 -101.05392 24770 ft 496 kts 20°
2026-04-25 22:09 33.14151 -101.03553 24770 ft 496 kts 20°
2026-04-25 22:09 33.17211 -101.01724 24771 ft 495 kts 20°
2026-04-25 22:09 33.20292 -100.99879 24771 ft 494 kts 20°
2026-04-25 22:10 33.23351 -100.98045 24771 ft 494 kts 20°
2026-04-25 22:10 33.26414 -100.96207 24771 ft 493 kts 20°
2026-04-25 22:10 33.29457 -100.94379 24772 ft 493 kts 20°
2026-04-25 22:10 33.32542 -100.92526 24772 ft 492 kts 20°
2026-04-25 22:11 33.35565 -100.90707 24772 ft 492 kts 20°
2026-04-25 22:11 33.38608 -100.88875 24772 ft 491 kts 20°
2026-04-25 22:11 33.41667 -100.87032 24773 ft 490 kts 20°
2026-04-25 22:11 33.44688 -100.85210 24773 ft 490 kts 20°
2026-04-25 22:12 33.47706 -100.83389 24773 ft 489 kts 20°
2026-04-25 22:12 33.50756 -100.81548 24774 ft 489 kts 20°
2026-04-25 22:12 33.53755 -100.79735 24774 ft 488 kts 20°
2026-04-25 22:12 33.55800 -100.78497 24773 ft 488 kts 20°
2026-04-25 22:13 33.59816 -100.76067 24768 ft 488 kts 20°
2026-04-25 22:13 33.62824 -100.74246 24760 ft 488 kts 20°
2026-04-25 22:13 33.65871 -100.72398 24748 ft 488 kts 20°
2026-04-25 22:13 33.68874 -100.70576 24739 ft 488 kts 20°
2026-04-25 22:14 33.71910 -100.68732 24731 ft 488 kts 20°
2026-04-25 22:14 33.74911 -100.66908 24724 ft 488 kts 20°
2026-04-25 22:14 33.77908 -100.65086 24720 ft 488 kts 20°
2026-04-25 22:14 33.80949 -100.63234 24720 ft 488 kts 20°
2026-04-25 22:15 33.83949 -100.61406 24720 ft 488 kts 20°
2026-04-25 22:15 33.86989 -100.59553 24720 ft 488 kts 20°
2026-04-25 22:15 33.89998 -100.57716 24720 ft 488 kts 20°
2026-04-25 22:16 33.96036 -100.54028 24721 ft 488 kts 20°
2026-04-25 22:16 33.99038 -100.52192 24721 ft 488 kts 20°
2026-04-25 22:16 34.02032 -100.50359 24721 ft 488 kts 20°
2026-04-25 22:16 34.05083 -100.48489 24721 ft 488 kts 20°
2026-04-25 22:17 34.08081 -100.46652 24721 ft 488 kts 20°
2026-04-25 22:17 34.11083 -100.44810 24722 ft 488 kts 20°
2026-04-25 22:17 34.14094 -100.42960 24724 ft 488 kts 20°
2026-04-25 22:17 34.17117 -100.41103 24724 ft 488 kts 20°
2026-04-25 22:18 34.20124 -100.39253 24724 ft 488 kts 20°
2026-04-25 22:18 34.23162 -100.37383 24724 ft 488 kts 20°
2026-04-25 22:18 34.26147 -100.35545 24725 ft 488 kts 20°
2026-04-25 22:18 34.29180 -100.33674 24712 ft 488 kts 20°
2026-04-25 22:19 34.32197 -100.31812 24712 ft 488 kts 20°
2026-04-25 22:19 34.35221 -100.29945 24712 ft 488 kts 20°
2026-04-25 22:19 34.38215 -100.28095 24713 ft 488 kts 20°
2026-04-25 22:19 34.41237 -100.26233 24713 ft 488 kts 20°
2026-04-25 22:20 34.44228 -100.24386 24713 ft 488 kts 20°
2026-04-25 22:20 34.47261 -100.22513 24713 ft 488 kts 20°
2026-04-25 22:20 34.50290 -100.20640 24713 ft 488 kts 20°
2026-04-25 22:20 34.53281 -100.18789 24713 ft 488 kts 20°
2026-04-25 22:21 34.56314 -100.16911 24714 ft 488 kts 20°
2026-04-25 22:21 34.59318 -100.15048 24714 ft 488 kts 20°
2026-04-25 22:21 34.62315 -100.13190 24714 ft 488 kts 20°
2026-04-25 22:21 34.65327 -100.11320 24714 ft 488 kts 20°
2026-04-25 22:22 34.68328 -100.09455 24714 ft 488 kts 20°
2026-04-25 22:22 34.71332 -100.07587 24714 ft 488 kts 20°
2026-04-25 22:22 34.74353 -100.05707 24715 ft 488 kts 20°
2026-04-25 22:22 34.77395 -100.03812 24716 ft 488 kts 20°
2026-04-25 22:23 34.80391 -100.01945 24717 ft 488 kts 20°
2026-04-25 22:23 34.83379 -100.00081 24718 ft 487 kts 20°
2026-04-25 22:23 34.86419 -99.98182 24718 ft 487 kts 20°
2026-04-25 22:23 34.89417 -99.96309 24719 ft 487 kts 20°
2026-04-25 22:24 34.92400 -99.94448 24723 ft 487 kts 21°
2026-04-25 22:24 34.95395 -99.92576 24727 ft 486 kts 21°
2026-04-25 22:24 34.98421 -99.90681 24732 ft 486 kts 21°
2026-04-25 22:24 35.01391 -99.88819 24738 ft 485 kts 21°
2026-04-25 22:25 35.04396 -99.86933 24745 ft 484 kts 22°
2026-04-25 22:25 35.07357 -99.85071 24750 ft 484 kts 22°
2026-04-25 22:25 35.10373 -99.83172 24753 ft 484 kts 22°
2026-04-25 22:25 35.13356 -99.81294 24754 ft 484 kts 22°
2026-04-25 22:26 35.16339 -99.79416 24754 ft 484 kts 22°
2026-04-25 22:26 35.19329 -99.77531 24754 ft 484 kts 22°
2026-04-25 22:26 35.22281 -99.75671 24755 ft 485 kts 22°
2026-04-25 22:26 35.25265 -99.73786 24755 ft 484 kts 22°
2026-04-25 22:27 35.28270 -99.71887 24755 ft 484 kts 22°
2026-04-25 22:27 35.31250 -99.70004 24756 ft 484 kts 22°
2026-04-25 22:27 35.34221 -99.68124 24756 ft 484 kts 22°
2026-04-25 22:27 35.37209 -99.66232 24756 ft 484 kts 22°
2026-04-25 22:28 35.40182 -99.64347 24756 ft 485 kts 22°
2026-04-25 22:28 35.43206 -99.62429 24756 ft 484 kts 22°
2026-04-25 22:28 35.46147 -99.60561 24756 ft 484 kts 22°
2026-04-25 22:28 35.49131 -99.58665 24756 ft 484 kts 22°
2026-04-25 22:29 35.52136 -99.56754 24756 ft 485 kts 22°
2026-04-25 22:29 35.55130 -99.54849 24757 ft 484 kts 22°
2026-04-25 22:29 35.58109 -99.52950 24757 ft 484 kts 22°
2026-04-25 22:30 35.64065 -99.49152 24757 ft 485 kts 22°
2026-04-25 22:30 35.67029 -99.47259 24757 ft 485 kts 22°
2026-04-25 22:30 35.70020 -99.45347 24757 ft 484 kts 22°
2026-04-25 22:30 35.72005 -99.44077 24757 ft 484 kts 22°
2026-04-25 22:31 35.75980 -99.41533 24758 ft 484 kts 22°
2026-04-25 22:31 35.78961 -99.39623 24758 ft 484 kts 22°
2026-04-25 22:31 35.81939 -99.37711 24758 ft 484 kts 22°
2026-04-25 22:31 35.84922 -99.35797 24758 ft 485 kts 22°
2026-04-25 22:32 35.87905 -99.33882 24759 ft 485 kts 22°
2026-04-25 22:32 35.90894 -99.31960 24768 ft 484 kts 22°
2026-04-25 22:32 35.93876 -99.30041 24777 ft 485 kts 22°
2026-04-25 22:32 35.96822 -99.28143 24784 ft 484 kts 22°
2026-04-25 22:33 35.99802 -99.26222 24790 ft 485 kts 22°
2026-04-25 22:33 36.02784 -99.24298 24793 ft 484 kts 22°
2026-04-25 22:33 36.05756 -99.22379 24794 ft 484 kts 22°
2026-04-25 22:33 36.08750 -99.20443 24795 ft 484 kts 22°
2026-04-25 22:34 36.11731 -99.18514 24799 ft 484 kts 22°
2026-04-25 22:34 36.14677 -99.16608 24802 ft 484 kts 22°
2026-04-25 22:34 36.17674 -99.14667 24806 ft 484 kts 22°
2026-04-25 22:34 36.20647 -99.12738 24807 ft 484 kts 22°
2026-04-25 22:35 36.23618 -99.10809 24807 ft 484 kts 22°
2026-04-25 22:35 36.26604 -99.08869 24806 ft 484 kts 22°
2026-04-25 22:35 36.29587 -99.06930 24805 ft 484 kts 22°
2026-04-25 22:35 36.32525 -99.05017 24803 ft 484 kts 22°
2026-04-25 22:36 36.35524 -99.03064 24801 ft 484 kts 22°
2026-04-25 22:36 36.38479 -99.01138 24800 ft 484 kts 22°
2026-04-25 22:36 36.41462 -98.99191 24799 ft 483 kts 22°
2026-04-25 22:36 36.44440 -98.97247 24797 ft 483 kts 22°
2026-04-25 22:37 36.47375 -98.95328 24796 ft 484 kts 22°
2026-04-25 22:37 36.50355 -98.93378 24795 ft 483 kts 22°
2026-04-25 22:37 36.53333 -98.91428 24793 ft 483 kts 22°
2026-04-25 22:37 36.56306 -98.89480 24792 ft 483 kts 22°
2026-04-25 22:38 36.59277 -98.87531 24791 ft 483 kts 22°
2026-04-25 22:38 36.62209 -98.85606 24790 ft 483 kts 22°
2026-04-25 22:38 36.65173 -98.83659 24790 ft 483 kts 22°
2026-04-25 22:38 36.68147 -98.81703 24790 ft 483 kts 22°
2026-04-25 22:39 36.71141 -98.79733 24791 ft 483 kts 22°
2026-04-25 22:39 36.74121 -98.77769 24791 ft 483 kts 22°
2026-04-25 22:39 36.77121 -98.75790 24791 ft 483 kts 22°
2026-04-25 22:39 36.80092 -98.73830 24791 ft 483 kts 22°
2026-04-25 22:40 36.83033 -98.71888 24791 ft 483 kts 22°
2026-04-25 22:40 36.86005 -98.69923 24791 ft 483 kts 22°
2026-04-25 22:40 36.88987 -98.67949 24791 ft 483 kts 22°
2026-04-25 22:40 36.91940 -98.65994 24792 ft 483 kts 22°
2026-04-25 22:41 36.94915 -98.64021 24792 ft 483 kts 22°
2026-04-25 22:41 36.97877 -98.62054 24792 ft 483 kts 22°
2026-04-25 22:41 37.00832 -98.60085 24792 ft 481 kts 22°
2026-04-25 22:41 37.03776 -98.58125 24792 ft 479 kts 21°
2026-04-25 22:42 37.06715 -98.56169 24792 ft 478 kts 21°
2026-04-25 22:42 37.09660 -98.54207 24792 ft 475 kts 20°
2026-04-25 22:42 37.12572 -98.52266 24797 ft 473 kts 20°
2026-04-25 22:42 37.15482 -98.50330 24798 ft 472 kts 20°
2026-04-25 22:43 37.18387 -98.48396 24799 ft 472 kts 20°
2026-04-25 22:43 37.21279 -98.46465 24800 ft 473 kts 20°
2026-04-25 22:43 37.24199 -98.44514 24800 ft 473 kts 20°
2026-04-25 22:43 37.27080 -98.42587 24800 ft 473 kts 20°
2026-04-25 22:44 37.30023 -98.40614 24799 ft 472 kts 20°
2026-04-25 22:44 37.32893 -98.38689 24797 ft 472 kts 20°
2026-04-25 22:44 37.35828 -98.36720 24798 ft 472 kts 20°
2026-04-25 22:44 37.38736 -98.34767 24796 ft 472 kts 21°
2026-04-25 22:45 37.41624 -98.32825 24784 ft 474 kts 21°
2026-04-25 22:45 37.44549 -98.30857 24786 ft 473 kts 21°
2026-04-25 22:45 37.47425 -98.28921 24787 ft 474 kts 21°
2026-04-25 22:45 37.50341 -98.26952 24788 ft 474 kts 21°
2026-04-25 22:46 37.53257 -98.24986 24790 ft 474 kts 21°
2026-04-25 22:46 37.56146 -98.23035 24790 ft 474 kts 21°
2026-04-25 22:46 37.59072 -98.21057 24790 ft 474 kts 21°
2026-04-25 22:46 37.61992 -98.19081 24789 ft 474 kts 21°
2026-04-25 22:47 37.64894 -98.17117 24788 ft 474 kts 21°
2026-04-25 22:47 37.67784 -98.15157 24786 ft 473 kts 21°
2026-04-25 22:47 37.70699 -98.13180 24787 ft 474 kts 21°
2026-04-25 22:47 37.73613 -98.11201 24786 ft 474 kts 21°
2026-04-25 22:48 37.76499 -98.09242 24787 ft 474 kts 21°
2026-04-25 22:48 37.79397 -98.07270 24786 ft 474 kts 21°
2026-04-25 22:48 37.82331 -98.05272 24787 ft 474 kts 21°
2026-04-25 22:48 37.85238 -98.03292 24787 ft 473 kts 21°
2026-04-25 22:49 37.88129 -98.01319 24786 ft 473 kts 21°
2026-04-25 22:49 37.90989 -97.99367 24787 ft 473 kts 21°
2026-04-25 22:49 37.93904 -97.97375 24787 ft 474 kts 21°
2026-04-25 22:49 37.96814 -97.95385 24788 ft 473 kts 21°
2026-04-25 22:50 37.99706 -97.93397 24788 ft 474 kts 22°
2026-04-25 22:50 38.02534 -97.91273 24788 ft 477 kts 24°
2026-04-25 22:50 38.05376 -97.89115 24787 ft 476 kts 23°
2026-04-25 22:50 38.08216 -97.86965 24787 ft 476 kts 23°
2026-04-25 22:51 38.11076 -97.84796 24790 ft 476 kts 23°
2026-04-25 22:51 38.13926 -97.82632 24795 ft 476 kts 23°
2026-04-25 22:51 38.16738 -97.80496 24795 ft 476 kts 23°
2026-04-25 22:51 38.19595 -97.78323 24797 ft 476 kts 23°
2026-04-25 22:52 38.22420 -97.76173 24798 ft 475 kts 23°
2026-04-25 22:52 38.25282 -97.73993 24800 ft 475 kts 23°
2026-04-25 22:52 38.28097 -97.71847 24801 ft 476 kts 23°
2026-04-25 22:52 38.29994 -97.70400 24802 ft 476 kts 23°
2026-04-25 22:53 38.33805 -97.67489 24803 ft 476 kts 23°
2026-04-25 22:53 38.36630 -97.65328 24803 ft 476 kts 23°
2026-04-25 22:53 38.39474 -97.63152 24803 ft 476 kts 23°
2026-04-25 22:53 38.42302 -97.60986 24803 ft 476 kts 23°
2026-04-25 22:54 38.45136 -97.58813 24802 ft 475 kts 23°
2026-04-25 22:54 38.47963 -97.56644 24800 ft 475 kts 23°
2026-04-25 22:54 38.50785 -97.54477 24798 ft 476 kts 23°
2026-04-25 22:54 38.53626 -97.52291 24795 ft 476 kts 23°
2026-04-25 22:55 38.56462 -97.50110 24792 ft 476 kts 23°
2026-04-25 22:55 38.59288 -97.47932 24789 ft 475 kts 23°
2026-04-25 22:55 38.62099 -97.45765 24787 ft 476 kts 23°
2026-04-25 22:55 38.64939 -97.43573 24786 ft 475 kts 23°
2026-04-25 22:56 38.67773 -97.41384 24786 ft 475 kts 23°
2026-04-25 22:56 38.70612 -97.39189 24786 ft 476 kts 23°
2026-04-25 22:56 38.73413 -97.37022 24786 ft 476 kts 23°
2026-04-25 22:56 38.76265 -97.34812 24785 ft 476 kts 24°
2026-04-25 22:57 38.79095 -97.32618 24773 ft 477 kts 24°
2026-04-25 22:57 38.81922 -97.30424 24775 ft 476 kts 24°
2026-04-25 22:57 38.84758 -97.28223 24775 ft 476 kts 24°
2026-04-25 22:57 38.87614 -97.26000 24775 ft 476 kts 24°
2026-04-25 22:58 38.90414 -97.23820 24776 ft 474 kts 24°
2026-04-25 22:58 38.93220 -97.21632 24781 ft 471 kts 24°
2026-04-25 22:58 38.96023 -97.19446 24786 ft 469 kts 24°
2026-04-25 22:58 38.98788 -97.17287 24795 ft 467 kts 23°
2026-04-25 22:59 39.01548 -97.15129 24800 ft 465 kts 23°
2026-04-25 22:59 39.04324 -97.12958 24808 ft 463 kts 23°
2026-04-25 22:59 39.07102 -97.10786 24812 ft 466 kts 23°
2026-04-25 22:59 39.09879 -97.08614 24809 ft 468 kts 23°
2026-04-25 23:00 39.12645 -97.06445 24819 ft 468 kts 23°
2026-04-25 23:00 39.15435 -97.04256 24818 ft 470 kts 23°
2026-04-25 23:00 39.18227 -97.02062 24821 ft 471 kts 22°
2026-04-25 23:00 39.21055 -96.99840 24819 ft 474 kts 22°
2026-04-25 23:01 39.23873 -96.97622 24820 ft 474 kts 22°
2026-04-25 23:01 39.26706 -96.95390 24822 ft 476 kts 22°
2026-04-25 23:01 39.29494 -96.93191 24823 ft 475 kts 22°
2026-04-25 23:01 39.32319 -96.90964 24825 ft 477 kts 22°
2026-04-25 23:02 39.35175 -96.88707 24828 ft 476 kts 22°
2026-04-25 23:02 39.38001 -96.86470 24828 ft 476 kts 22°
2026-04-25 23:02 39.40810 -96.84249 24829 ft 477 kts 22°
2026-04-25 23:02 39.43630 -96.82015 24828 ft 477 kts 22°
2026-04-25 23:03 39.46482 -96.79752 24829 ft 477 kts 22°
2026-04-25 23:03 39.49286 -96.77526 24829 ft 477 kts 22°
2026-04-25 23:03 39.52112 -96.75279 24829 ft 476 kts 22°
2026-04-25 23:03 39.54970 -96.73007 24822 ft 476 kts 22°
2026-04-25 23:04 39.57755 -96.70788 24799 ft 475 kts 22°
2026-04-25 23:04 39.60590 -96.68529 24803 ft 474 kts 22°
2026-04-25 23:04 39.63411 -96.66280 24802 ft 475 kts 22°
2026-04-25 23:04 39.66215 -96.64040 24802 ft 475 kts 22°
2026-04-25 23:05 39.69046 -96.61778 24803 ft 475 kts 22°
2026-04-25 23:05 39.71850 -96.59534 24806 ft 475 kts 22°
2026-04-25 23:05 39.74654 -96.57289 24811 ft 476 kts 22°
2026-04-25 23:05 39.77468 -96.55034 24816 ft 474 kts 22°
2026-04-25 23:06 39.80274 -96.52781 24821 ft 475 kts 22°
2026-04-25 23:06 39.83092 -96.50518 24826 ft 474 kts 22°
2026-04-25 23:06 39.85873 -96.48283 24830 ft 475 kts 22°
2026-04-25 23:06 39.88683 -96.46022 24831 ft 475 kts 22°
2026-04-25 23:07 39.91491 -96.43755 24821 ft 467 kts 22°
2026-04-25 23:07 39.94230 -96.41547 24829 ft 464 kts 22°
2026-04-25 23:07 39.96976 -96.39333 24831 ft 462 kts 22°
2026-04-25 23:07 39.99652 -96.37161 24814 ft 446 kts 22°
2026-04-25 23:08 40.02253 -96.35053 24797 ft 435 kts 21°
2026-04-25 23:08 40.04826 -96.32982 24784 ft 438 kts 22°
2026-04-25 23:08 40.07447 -96.30863 24401 ft 444 kts 22°
2026-04-25 23:08 40.10001 -96.28783 23185 ft 417 kts 22°
2026-04-25 23:09 40.12406 -96.26817 22527 ft 388 kts 22°
2026-04-25 23:09 40.14646 -96.24999 22075 ft 375 kts 21°
2026-04-25 23:09 40.16876 -96.23201 21648 ft 372 kts 21°
2026-04-25 23:09 40.19079 -96.21506 21261 ft 360 kts 15°
2026-04-25 23:10 40.21400 -96.20512 20890 ft 339 kts 359°
2026-04-25 23:10 40.23740 -96.20134 20536 ft 335 kts 357°
2026-04-25 23:10 40.26083 -96.19733 20181 ft 335 kts 357°
2026-04-25 23:10 40.28384 -96.19368 19833 ft 334 kts 357°
2026-04-25 23:11 40.30716 -96.19003 19480 ft 333 kts 357°
2026-04-25 23:11 40.33011 -96.18649 19133 ft 331 kts 357°
2026-04-25 23:11 40.35311 -96.18294 18786 ft 329 kts 357°
2026-04-25 23:11 40.37610 -96.17939 18436 ft 326 kts 357°
2026-04-25 23:12 40.39829 -96.17596 18094 ft 320 kts 357°
2026-04-25 23:12 40.42025 -96.17252 17737 ft 307 kts 357°
2026-04-25 23:12 40.44147 -96.16929 17475 ft 303 kts 356°
2026-04-25 23:12 40.46233 -96.16612 17196 ft 303 kts 357°
2026-04-25 23:13 40.48364 -96.16286 16892 ft 303 kts 357°
2026-04-25 23:13 40.50448 -96.15966 16578 ft 302 kts 357°
2026-04-25 23:13 40.52557 -96.15643 16255 ft 300 kts 356°
2026-04-25 23:13 40.54636 -96.15380 15928 ft 295 kts 355°
2026-04-25 23:14 40.56676 -96.15130 15614 ft 290 kts 356°
2026-04-25 23:14 40.58678 -96.14881 15309 ft 285 kts 356°
2026-04-25 23:14 40.60661 -96.14636 15010 ft 280 kts 355°
2026-04-25 23:14 40.62581 -96.14399 14723 ft 276 kts 355°
2026-04-25 23:15 40.64509 -96.14163 14439 ft 273 kts 355°
2026-04-25 23:15 40.66406 -96.13915 14159 ft 273 kts 356°
2026-04-25 23:15 40.68298 -96.13638 13882 ft 273 kts 357°
2026-04-25 23:15 40.70189 -96.13366 13589 ft 273 kts 357°
2026-04-25 23:16 40.72102 -96.13087 13290 ft 272 kts 357°
2026-04-25 23:16 40.73994 -96.12811 12992 ft 270 kts 357°
2026-04-25 23:16 40.75795 -96.12536 12653 ft 251 kts 356°
2026-04-25 23:16 40.77549 -96.12284 12426 ft 251 kts 356°
2026-04-25 23:17 40.79316 -96.12031 12168 ft 251 kts 357°
2026-04-25 23:17 40.81072 -96.11774 11904 ft 250 kts 357°
2026-04-25 23:17 40.82800 -96.11522 11647 ft 246 kts 357°
2026-04-25 23:17 40.84497 -96.11274 11391 ft 242 kts 357°
2026-04-25 23:18 40.86166 -96.11030 11143 ft 239 kts 358°
2026-04-25 23:18 40.87828 -96.10786 10900 ft 236 kts 358°
2026-04-25 23:18 40.89481 -96.10545 10659 ft 234 kts 358°
2026-04-25 23:18 40.91111 -96.10302 10420 ft 232 kts 359°
2026-04-25 23:19 40.92707 -96.10066 10180 ft 229 kts 360°
2026-04-25 23:19 40.94281 -96.09828 9938 ft 227 kts
2026-04-25 23:19 40.95857 -96.09592 9687 ft 225 kts
2026-04-25 23:19 40.97431 -96.09354 9438 ft 223 kts
2026-04-25 23:20 40.98959 -96.09124 9196 ft 220 kts
2026-04-25 23:20 41.00495 -96.08893 8954 ft 218 kts
2026-04-25 23:20 41.01997 -96.08666 8719 ft 217 kts
2026-04-25 23:20 41.03512 -96.08437 8482 ft 215 kts
2026-04-25 23:21 41.04995 -96.08213 8252 ft 214 kts
2026-04-25 23:21 41.06503 -96.07985 8019 ft 213 kts
2026-04-25 23:21 41.07974 -96.07762 7792 ft 213 kts
2026-04-25 23:21 41.09470 -96.07536 7562 ft 212 kts
2026-04-25 23:22 41.10937 -96.07313 7345 ft 211 kts
2026-04-25 23:22 41.12394 -96.07091 7124 ft 206 kts
2026-04-25 23:22 41.13813 -96.06877 6906 ft 201 kts
2026-04-25 23:23 41.16544 -96.06464 6496 ft 191 kts
2026-04-25 23:23 41.17849 -96.06266 6294 ft 185 kts
2026-04-25 23:23 41.19131 -96.06072 6098 ft 180 kts
2026-04-25 23:23 41.20361 -96.05885 5911 ft 174 kts
2026-04-25 23:24 41.21570 -96.05701 5739 ft 173 kts
2026-04-25 23:24 41.22777 -96.05517 5580 ft 174 kts
2026-04-25 23:24 41.23996 -96.05331 5407 ft 176 kts
2026-04-25 23:24 41.25224 -96.05144 5222 ft 176 kts
2026-04-25 23:25 41.26452 -96.04958 5040 ft 176 kts
2026-04-25 23:25 41.27702 -96.04890 4959 ft 177 kts
2026-04-25 23:25 41.28940 -96.04835 4894 ft 177 kts
2026-04-25 23:25 41.30191 -96.04774 4824 ft 178 kts
2026-04-25 23:26 41.31443 -96.04722 4753 ft 178 kts
2026-04-25 23:26 41.32692 -96.04669 4681 ft 178 kts
2026-04-25 23:26 41.33940 -96.04619 4610 ft 178 kts
2026-04-25 23:26 41.35183 -96.04570 4540 ft 178 kts
2026-04-25 23:27 41.36425 -96.04520 4470 ft 178 kts
2026-04-25 23:27 41.37682 -96.04471 4399 ft 177 kts
2026-04-25 23:27 41.38912 -96.04423 4331 ft 177 kts
2026-04-25 23:27 41.40167 -96.04374 4261 ft 177 kts
2026-04-25 23:28 41.41416 -96.04325 4191 ft 177 kts
2026-04-25 23:28 41.42647 -96.04277 4123 ft 177 kts
2026-04-25 23:28 41.43891 -96.04211 4015 ft 177 kts 11°
2026-04-25 23:28 41.44994 -96.03526 3763 ft 172 kts 49°
2026-04-25 23:29 41.45388 -96.02088 3621 ft 169 kts 91°
2026-04-25 23:29 41.44859 -96.00647 3483 ft 181 kts 135°
2026-04-25 23:29 41.43657 -96.00020 3375 ft 192 kts 171°
2026-04-25 23:29 41.42333 -95.99806 3270 ft 190 kts 160°
2026-04-25 23:30 41.41099 -95.99180 3091 ft 185 kts 150°
2026-04-25 23:30 41.39932 -95.98484 2815 ft 182 kts 152°
2026-04-25 23:30 41.38858 -95.97779 2662 ft 160 kts 142°
2026-04-25 23:30 41.37962 -95.96976 2355 ft 153 kts 139°
2026-04-25 23:31 41.37071 -95.96152 2113 ft 155 kts 142°
2026-04-25 23:31 41.36185 -95.95317 1924 ft 152 kts 138°
2026-04-25 23:31 41.35376 -95.94470 1785 ft 145 kts 137°
2026-04-25 23:31 41.34571 -95.93614 1497 ft 147 kts 139°
2026-04-25 23:32 41.33747 -95.92861 1307 ft 137 kts 144°
2026-04-25 23:32 41.32975 -95.92127 1194 ft 133 kts 140°
2026-04-25 23:32 41.32161 -95.91349 1205 ft 151 kts 143°
2026-04-25 23:32 41.31304 -95.90537 1013 ft 144 kts 142°
2026-04-25 23:33 41.30566 -95.89819 1002 ft 111 kts 142°
2026-04-25 23:33 41.30050 -95.89333 1001 ft 70 kts 144°
2026-04-25 23:33 41.29725 -95.89025 1001 ft 50 kts 144°
2026-04-25 23:33 41.29479 -95.88792 1001 ft 32 kts 145°
2026-04-25 23:34 41.29350 -95.88671 1001 ft 20 kts 145°
2026-04-25 23:34 41.29259 -95.88642 1001 ft 12 kts 208°
2026-04-25 23:34 41.29243 -95.88738 1001 ft 11 kts 297°
2026-04-25 23:34 41.29299 -95.88808 1001 ft 11 kts 322°
2026-04-25 23:35 41.29364 -95.88872 1001 ft 12 kts 324°
2026-04-25 23:35 41.29440 -95.88943 1001 ft 14 kts 325°
2026-04-25 23:35 41.29528 -95.89023 1001 ft 15 kts 326°
2026-04-25 23:35 41.29622 -95.89112 1001 ft 17 kts 324°
2026-04-25 23:36 41.29699 -95.89232 1001 ft 17 kts 282°
2026-04-25 23:36 41.29702 -95.89370 1001 ft 15 kts 270°
2026-04-25 23:36 41.29700 -95.89512 1001 ft 13 kts 269°
2026-04-25 23:36 41.29748 -95.89597 1001 ft 11 kts 342°
2026-04-25 23:37 41.29783 -95.89676 1001 ft 7 kts 265°
2026-04-25 23:37 41.29779 -95.89729 1001 ft 5 kts 267°
2026-04-25 23:37 41.29778 -95.89758 1001 ft 0 kts 266°